• In Deutschland
  • Länderverzeichnis
  • Für 7 Tage
  • Wassertemperatur
  • Satellitenkarten
  • Wetterkarte
  • Widgets
  • user-avatar
    Anmelden

    Stündliche Wetter Ghadamis

    Heute, 17 Januar, Mittwoch

    Zeit Temperatur Niederschläge Wind Luftdruck Luftfeuchtigkeit
    00:00 +14°C° 0 mm 1 m/S 738 mmHg 27%
    01:00 +13°C° 0 mm 1 m/S 738 mmHg 28%
    02:00 +13°C° 0 mm 1 m/S 738 mmHg 29%
    03:00 +12°C° 0 mm 1 m/S 738 mmHg 29%
    04:00 +12°C° 0 mm 1 m/S 737 mmHg 30%
    05:00 +11°C° 0 mm 1 m/S 737 mmHg 31%
    06:00 +11°C° 0 mm 1 m/S 737 mmHg 31%
    07:00 +11°C° 0 mm 1 m/S 737 mmHg 31%
    08:00 +13°C° 0 mm 1 m/S 738 mmHg 29%
    09:00 +14°C° 0 mm 1 m/S 738 mmHg 26%
    10:00 +16°C° 0 mm 1 m/S 738 mmHg 24%
    11:00 +18°C° 0 mm 1 m/S 738 mmHg 21%
    12:00 +19°C° 0 mm 1 m/S 737 mmHg 19%
    13:00 +20°C° 0 mm 1 m/S 737 mmHg 17%
    14:00 +21°C° 0 mm 1 m/S 737 mmHg 17%
    15:00 +21°C° 0 mm 1 m/S 736 mmHg 16%
    16:00 +22°C° 0 mm 1 m/S 736 mmHg 15%
    17:00 +20°C° 0 mm 1 m/S 736 mmHg 18%
    18:00 +19°C° 0 mm 1 m/S 736 mmHg 20%
    19:00 +16°C° 0 mm 2 m/S 736 mmHg 22%
    20:00 +16°C° 0 mm 2 m/S 736 mmHg 22%
    21:00 +15°C° 0 mm 2 m/S 737 mmHg 23%
    22:00 +15°C° 0 mm 2 m/S 737 mmHg 24%
    23:00 +14°C° 0 mm 2 m/S 737 mmHg 25%

    Morgen, 18 Januar, Donnerstag

    Zeit Temperatur Niederschläge Wind Luftdruck Luftfeuchtigkeit
    00:00 +14°C° 0 mm 2 m/S 737 mmHg 25%
    01:00 +13°C° 0 mm 2 m/S 737 mmHg 26%
    02:00 +13°C° 0 mm 2 m/S 737 mmHg 26%
    03:00 +13°C° 0 mm 2 m/S 737 mmHg 27%
    04:00 +12°C° 0 mm 2 m/S 736 mmHg 27%
    05:00 +12°C° 0 mm 2 m/S 737 mmHg 28%
    06:00 +11°C° 0 mm 3 m/S 737 mmHg 28%
    07:00 +11°C° 0 mm 3 m/S 737 mmHg 29%
    08:00 +12°C° 0 mm 4 m/S 738 mmHg 28%
    09:00 +13°C° 0 mm 5 m/S 738 mmHg 27%
    10:00 +14°C° 0 mm 5 m/S 738 mmHg 26%
    11:00 +15°C° 0 mm 6 m/S 738 mmHg 26%
    12:00 +16°C° 0 mm 6 m/S 738 mmHg 25%
    13:00 +19°C° 0 mm 6 m/S 737 mmHg 24%
    14:00 +19°C° 0 mm 6 m/S 737 mmHg 24%
    15:00 +20°C° 0 mm 6 m/S 737 mmHg 24%
    16:00 +20°C° 0 mm 6 m/S 736 mmHg 23%
    17:00 +19°C° 0 mm 5 m/S 736 mmHg 26%
    18:00 +17°C° 0 mm 5 m/S 736 mmHg 29%
    19:00 +17°C° 0 mm 4 m/S 736 mmHg 31%
    20:00 +15°C° 0 mm 5 m/S 736 mmHg 32%
    21:00 +15°C° 0 mm 5 m/S 736 mmHg 32%
    22:00 +14°C° 0 mm 5 m/S 737 mmHg 33%
    23:00 +14°C° 0 mm 5 m/S 736 mmHg 35%

    übermorgen, 19 Januar, Freitag

    Zeit Temperatur Niederschläge Wind Luftdruck Luftfeuchtigkeit
    00:00 +13°C° 0 mm 5 m/S 735 mmHg 36%
    01:00 +13°C° 0 mm 5 m/S 735 mmHg 38%
    02:00 +13°C° 0 mm 5 m/S 734 mmHg 41%
    03:00 +12°C° 0 mm 5 m/S 734 mmHg 44%
    04:00 +12°C° 0 mm 5 m/S 733 mmHg 47%
    05:00 +12°C° 0 mm 5 m/S 733 mmHg 47%
    06:00 +10°C° 0 mm 5 m/S 733 mmHg 48%
    07:00 +10°C° 0 mm 5 m/S 733 mmHg 48%
    08:00 +13°C° 0 mm 6 m/S 733 mmHg 42%
    09:00 +14°C° 0 mm 7 m/S 733 mmHg 37%
    10:00 +15°C° 0 mm 7 m/S 733 mmHg 31%
    11:00 +17°C° 0 mm 7 m/S 732 mmHg 26%
    12:00 +21°C° 0 mm 8 m/S 732 mmHg 20%
    13:00 +23°C° 0 mm 8 m/S 731 mmHg 15%
    14:00 +23°C° 0 mm 7 m/S 731 mmHg 14%
    15:00 +23°C° 0 mm 6 m/S 730 mmHg 13%
    16:00 +25°C° 0 mm 5 m/S 729 mmHg 13%
    17:00 +22°C° 0 mm 5 m/S 729 mmHg 14%
    18:00 +21°C° 0 mm 4 m/S 729 mmHg 16%
    19:00 +19°C° 0 mm 4 m/S 729 mmHg 17%
    20:00 +19°C° 0 mm 4 m/S 729 mmHg 18%
    21:00 +18°C° 0 mm 4 m/S 729 mmHg 19%
    22:00 +17°C° 0 mm 4 m/S 729 mmHg 20%
    23:00 +17°C° 0 mm 4 m/S 729 mmHg 20%

    20 Januar, Samstag

    Zeit Temperatur Niederschläge Wind Luftdruck Luftfeuchtigkeit
    00:00 +15°C° 0 mm 4 m/S 729 mmHg 21%
    01:00 +15°C° 0 mm 4 m/S 728 mmHg 22%
    02:00 +14°C° 0 mm 4 m/S 728 mmHg 23%
    03:00 +14°C° 0 mm 4 m/S 728 mmHg 24%
    04:00 +13°C° 0 mm 4 m/S 728 mmHg 25%
    05:00 +13°C° 0 mm 5 m/S 728 mmHg 28%
    06:00 +12°C° 0 mm 5 m/S 728 mmHg 31%
    07:00 +12°C° 0 mm 5 m/S 728 mmHg 33%
    08:00 +13°C° 0 mm 6 m/S 729 mmHg 33%
    09:00 +12°C° 0 mm 7 m/S 729 mmHg 32%
    10:00 +13°C° 0 mm 8 m/S 729 mmHg 32%
    11:00 +15°C° 0 mm 8 m/S 729 mmHg 32%
    12:00 +15°C° 0 mm 8 m/S 729 mmHg 32%
    13:00 +16°C° 0 mm 8 m/S 729 mmHg 32%
    14:00 +16°C° 0 mm 9 m/S 730 mmHg 33%
    15:00 +16°C° 0 mm 9 m/S 730 mmHg 34%
    16:00 +16°C° 0 mm 9 m/S 730 mmHg 35%
    17:00 +15°C° 0 mm 9 m/S 731 mmHg 45%
    18:00 +13°C° 0 mm 9 m/S 732 mmHg 55%
    19:00 +12°C° 0 mm 9 m/S 732 mmHg 65%
    20:00 +12°C° 0 mm 8 m/S 733 mmHg 68%
    21:00 +11°C° 0 mm 7 m/S 734 mmHg 70%
    22:00 +11°C° 0 mm 6 m/S 735 mmHg 73%
    23:00 +10°C° 0 mm 5 m/S 735 mmHg 75%

    21 Januar, Sonntag

    Zeit Temperatur Niederschläge Wind Luftdruck Luftfeuchtigkeit
    00:00 +11°C° 0 mm 4 m/S 735 mmHg 77%
    01:00 +11°C° 0 mm 4 m/S 735 mmHg 79%
    02:00 +10°C° 0 mm 3 m/S 736 mmHg 79%
    03:00 +10°C° 0 mm 3 m/S 736 mmHg 80%
    04:00 +9°C° 0 mm 3 m/S 736 mmHg 80%
    05:00 +9°C° 0 mm 3 m/S 736 mmHg 80%
    06:00 +9°C° 0 mm 2 m/S 737 mmHg 81%
    07:00 +8°C° 0 mm 2 m/S 737 mmHg 81%
    08:00 +9°C° 0 mm 2 m/S 737 mmHg 75%
    09:00 +10°C° 0 mm 3 m/S 738 mmHg 69%
    10:00 +11°C° 0 mm 3 m/S 738 mmHg 63%
    11:00 +12°C° 0 mm 4 m/S 738 mmHg 57%
    12:00 +14°C° 0 mm 5 m/S 738 mmHg 51%
    13:00 +15°C° 0 mm 6 m/S 738 mmHg 46%
    14:00 +15°C° 0 mm 6 m/S 737 mmHg 45%
    15:00 +15°C° 0 mm 6 m/S 737 mmHg 44%
    16:00 +15°C° 0 mm 6 m/S 737 mmHg 43%
    17:00 +15°C° 0 mm 5 m/S 737 mmHg 44%
    18:00 +14°C° 0 mm 4 m/S 738 mmHg 46%
    19:00 +13°C° 0 mm 3 m/S 738 mmHg 47%
    20:00 +13°C° 0 mm 3 m/S 738 mmHg 48%
    21:00 +13°C° 0 mm 3 m/S 739 mmHg 49%
    22:00 +12°C° 0 mm 3 m/S 739 mmHg 50%
    23:00 +13°C° 0 mm 2 m/S 739 mmHg 50%

    22 Januar, Montag

    Zeit Temperatur Niederschläge Wind Luftdruck Luftfeuchtigkeit
    00:00 +13°C° 0 mm 2 m/S 739 mmHg 51%
    01:00 +12°C° 0 mm 2 m/S 739 mmHg 52%
    02:00 +12°C° 0 mm 2 m/S 739 mmHg 53%
    03:00 +12°C° 0 mm 2 m/S 739 mmHg 53%
    04:00 +12°C° 0 mm 2 m/S 739 mmHg 54%
    05:00 +10°C° 0 mm 2 m/S 739 mmHg 55%
    06:00 +10°C° 0 mm 2 m/S 739 mmHg 56%
    07:00 +10°C° 0 mm 2 m/S 740 mmHg 57%
    08:00 +12°C° 0 mm 2 m/S 740 mmHg 55%
    09:00 +12°C° 0 mm 3 m/S 740 mmHg 54%
    10:00 +13°C° 0 mm 3 m/S 740 mmHg 52%
    11:00 +14°C° 0 mm 3 m/S 740 mmHg 51%
    12:00 +14°C° 0 mm 3 m/S 740 mmHg 50%
    13:00 +15°C° 0 mm 4 m/S 740 mmHg 49%
    14:00 +17°C° 0 mm 4 m/S 739 mmHg 48%
    15:00 +16°C° 0 mm 5 m/S 739 mmHg 48%
    16:00 +16°C° 0 mm 5 m/S 739 mmHg 47%
    17:00 +15°C° 0 mm 5 m/S 739 mmHg 51%
    18:00 +15°C° 0 mm 4 m/S 740 mmHg 54%
    19:00 +14°C° 0 mm 3 m/S 740 mmHg 57%
    20:00 +13°C° 0 mm 3 m/S 740 mmHg 60%
    21:00 +13°C° 0 mm 3 m/S 740 mmHg 63%
    22:00 +12°C° 0 mm 3 m/S 741 mmHg 66%
    23:00 +13°C° 0 mm 2 m/S 741 mmHg 68%
    Mehr zeigen